カタログに戻る

INTELSAT 503

運用中通信GEO
NORAD 12994·PAYLOAD· XX

打ち上げ Dec 15, 1981 から Cape Canaveral Space Force Station

Loading…

TLE

最新Source: Space-Track

元期: Sep 14, 2026, 12:46 UTC

1 12994U 81119A   26257.53206206 -.00000339  00000-0  00000-0 0  9997
2 12994  11.1398 326.5358 0051840 269.4460  90.7394  0.99469580127597

AllMySatでINTELSAT 503をリアルタイム追跡

Download on the App Store